SAR-LUPE 3 1 32283U 07053A 25258.98955802 .00000335 00000+0 42346-5 0 9995 2 32283 98.1800 60.2598 0006639 25.7273 334.4315 15.68727276997454 SAPPHIRE 1 39088U 13009C 25259.45046807 .00000136 00000+0 62616-4 0 9992 2 39088 98.4181 80.5529 0010982 350.2223 9.8747 14.35106511657311